TimeMDT,TemperatureF,Dew PointF,Humidity,Sea Level PressureIn,VisibilityMPH,Wind Direction,Wind SpeedMPH,Gust SpeedMPH,PrecipitationIn,Events,Conditions,WindDirDegrees,DateUTC
12:53 AM,30.9,28.9,92,29.87,10.0,NE,5.8,-,0.00,,Overcast,40,2013-05-07 06:53:00
1:53 AM,30.9,28.9,92,29.83,10.0,NE,8.1,-,N/A,,Overcast,50,2013-05-07 07:53:00
2:53 AM,30.9,27.0,85,29.82,10.0,North,9.2,-,N/A,,Overcast,10,2013-05-07 08:53:00
3:53 AM,30.9,27.0,85,29.86,10.0,NNE,6.9,-,N/A,,Overcast,20,2013-05-07 09:53:00
4:53 AM,30.9,26.1,82,29.86,10.0,North,10.4,-,N/A,,Overcast,350,2013-05-07 10:53:00
5:53 AM,30.9,26.1,82,29.89,10.0,North,9.2,-,N/A,,Overcast,360,2013-05-07 11:53:00
6:53 AM,30.0,27.0,88,29.93,10.0,ENE,5.8,-,N/A,,Overcast,60,2013-05-07 12:53:00
7:53 AM,33.1,27.0,78,29.94,10.0,North,5.8,-,N/A,,Overcast,10,2013-05-07 13:53:00
8:53 AM,36.0,28.0,73,29.92,10.0,North,4.6,-,N/A,,Overcast,350,2013-05-07 14:53:00
9:53 AM,37.9,27.0,65,29.91,10.0,NNW,6.9,-,N/A,,Clear,330,2013-05-07 15:53:00
10:53 AM,39.9,26.1,58,29.90,10.0,NNW,9.2,-,N/A,,Partly Cloudy,330,2013-05-07 16:53:00
11:53 AM,42.1,26.1,53,29.88,10.0,North,6.9,-,N/A,,Mostly Cloudy,350,2013-05-07 17:53:00
12:53 PM,43.0,26.1,51,29.86,10.0,North,10.4,-,N/A,,Mostly Cloudy,360,2013-05-07 18:53:00
1:53 PM,44.1,19.9,38,29.83,10.0,Calm,Calm,-,N/A,,Partly Cloudy,0,2013-05-07 19:53:00
2:53 PM,45.0,19.9,37,29.82,10.0,NNW,5.8,-,N/A,,Mostly Cloudy,330,2013-05-07 20:53:00
3:53 PM,45.0,21.9,40,29.81,10.0,South,6.9,-,N/A,,Scattered Clouds,170,2013-05-07 21:53:00
4:53 PM,42.1,28.0,58,29.83,10.0,NNW,10.4,20.7,0.00,Rain,Light Rain,330,2013-05-07 22:53:00
5:53 PM,37.0,28.9,73,29.91,7.0,North,10.4,-,0.00,Snow,Light Snow,360,2013-05-07 23:53:00
6:21 PM,35.6,30.2,81,30.15,6.0,SSE,4.6,-,0.00,Snow,Light Snow,150,2013-05-08 00:21:00
6:31 PM,33.8,32.0,93,30.15,2.5,South,4.6,-,0.00,Snow,Light Snow,170,2013-05-08 00:31:00
6:43 PM,33.8,32.0,93,30.15,5.0,SSW,5.8,-,0.00,Snow,Light Snow,200,2013-05-08 00:43:00
6:53 PM,34.0,32.0,92,29.95,10.0,South,3.5,-,0.00,,Overcast,170,2013-05-08 00:53:00
7:22 PM,33.8,32.0,93,30.15,10.0,Calm,Calm,-,N/A,,Mostly Cloudy,0,2013-05-08 01:22:00
7:53 PM,35.1,32.0,89,29.92,10.0,Calm,Calm,-,N/A,,Clear,0,2013-05-08 01:53:00
8:53 PM,34.0,32.0,92,29.93,9.0,SE,5.8,-,0.00,,Overcast,140,2013-05-08 02:53:00
9:00 PM,33.8,32.0,93,30.18,2.5,SSW,3.5,-,0.00,Snow,Light Snow,200,2013-05-08 03:00:00
9:02 PM,33.8,32.0,93,30.18,1.8,SSW,4.6,-,0.00,Snow,Light Snow,210,2013-05-08 03:02:00
9:10 PM,32.0,30.2,93,30.18,1.0,SSE,5.8,-,0.01,Snow,Light Snow,150,2013-05-08 03:10:00
9:51 PM,32.0,30.2,93,30.18,2.0,East,3.5,-,0.04,Snow,Light Snow,90,2013-05-08 03:51:00
9:53 PM,32.0,30.0,92,29.94,2.5,East,4.6,-,0.04,Snow,Light Snow,90,2013-05-08 03:53:00
10:00 PM,32.0,30.2,93,30.17,8.0,ENE,3.5,-,0.00,Snow,Light Snow,60,2013-05-08 04:00:00
10:34 PM,32.0,30.2,93,30.17,2.5,North,6.9,-,0.00,Snow,Light Snow,10,2013-05-08 04:34:00
10:42 PM,32.0,30.2,93,30.16,4.0,NE,5.8,-,0.00,Snow,Light Snow,50,2013-05-08 04:42:00
10:53 PM,32.0,30.0,92,29.90,10.0,NE,6.9,-,0.00,,Overcast,40,2013-05-08 04:53:00
11:53 PM,32.0,28.9,88,29.88,10.0,West,3.5,-,N/A,,Partly Cloudy,260,2013-05-08 05:53:00